Location: Unspecified
(0.0000°N, 0.0000°E)
Time: 00:55:47
(UTC+01:00)

Altair - All Passes

Search period start: 25 March 2017 00:00
Search period end: 04 April 2017 01:00
Orbit: 1502 x 1682 km, 47.2° (Epoch: 23 March)

Date Brightness Start Highest point End Pass type
(mag) Time Alt. Az. Time Alt. Az. Time Alt. Az.
25 Mar - 00:21:20 10° SSW 00:30:38 56° SE 00:39:35 10° NE night (unlit)
25 Mar - 02:27:20 10° WSW 02:35:06 30° NW 02:42:45 10° N night (unlit)
25 Mar - 11:07:32 10° N 11:14:51 24° NE 11:22:18 10° E daylight
25 Mar - 13:09:46 10° NW 13:19:34 74° SW 13:29:42 10° SSE daylight
25 Mar - 15:20:14 10° WSW 15:24:54 14° SW 15:29:37 10° SSW daylight
25 Mar - 23:56:18 10° SSW 00:05:28 50° SE 00:14:18 10° ENE night (unlit)
26 Mar - 03:01:47 10° WSW 03:09:56 33° NW 03:17:57 10° NNE night (unlit)
26 Mar - 11:42:53 10° N 11:49:37 21° NE 11:56:28 10° E daylight
26 Mar - 13:44:35 10° NW 13:54:23 81° SW 14:04:33 10° SE daylight
26 Mar - 15:54:00 10° W 15:59:35 16° SW 16:05:16 10° S daylight
27 Mar - 00:31:18 10° SSW 00:40:18 45° SE 00:48:59 10° ENE night (unlit)
27 Mar - 02:36:18 10° WSW 02:44:48 38° NW 02:53:06 10° NNE night (unlit)
27 Mar - 11:18:21 10° N 11:24:23 18° NE 11:30:31 10° E daylight
27 Mar - 13:19:26 10° NW 13:29:13 90° SW 13:39:22 10° SE daylight
27 Mar - 15:27:58 10° W 15:34:18 19° SW 15:40:45 10° S daylight
28 Mar - 00:06:20 10° SSW 00:15:08 40° SE 00:23:37 10° ENE visible
28 Mar - 02:10:52 10° WSW 02:19:38 43° NW 02:28:12 10° NNE night (unlit)
28 Mar - 10:53:56 10° NNE 10:59:08 16° NE 11:04:23 10° E daylight
28 Mar - 12:54:18 10° NW 13:04:02 82° NE 13:14:09 10° SE daylight
28 Mar - 15:02:06 10° W 15:09:01 21° SW 15:16:07 10° S daylight
28 Mar - 23:41:23 10° SSW 23:49:58 35° SE 23:58:13 10° ENE visible
29 Mar - 01:45:28 10° WSW 01:54:30 48° NW 02:03:17 10° NNE night (unlit)
29 Mar - 10:29:46 10° NNE 10:33:52 13° NE 10:38:00 10° ENE daylight
29 Mar - 12:29:13 10° NNW 12:38:52 74° NE 12:48:54 10° SE daylight
29 Mar - 14:36:20 10° W 14:43:46 24° SW 14:51:24 10° S daylight
29 Mar - 23:16:29 10° S 23:24:46 31° SE 23:32:44 10° ENE visible
30 Mar - 01:20:07 10° SW 01:29:21 54° NW 01:38:19 10° NNE night (unlit)
30 Mar - 10:06:09 10° NNE 10:08:35 11° NE 10:11:02 10° ENE daylight
30 Mar - 12:04:09 10° NNW 12:13:43 67° NE 12:23:37 10° SE daylight
30 Mar - 14:10:40 10° W 14:18:30 27° SW 14:26:36 10° S daylight
30 Mar - 22:51:37 10° S 22:59:33 28° SE 23:07:13 10° ENE visible
31 Mar - 00:54:48 10° SW 01:04:13 61° NW 01:13:19 10° NNE night (unlit)
31 Mar - 11:39:08 10° NNW 11:48:33 60° NE 11:58:19 10° SE daylight
31 Mar - 13:45:05 10° WNW 13:53:17 30° SW 14:01:45 10° S daylight
31 Mar - 22:26:49 10° S 22:34:20 25° SE 22:41:37 10° E visible
01 Apr - 00:29:31 10° SW 00:39:05 69° NW 00:48:18 10° NNE visible
01 Apr - 02:41:45 10° WNW 02:44:04 11° NW 02:46:24 10° NNW night (unlit)
01 Apr - 11:14:08 10° NNW 11:23:23 53° NE 11:32:58 10° SE daylight
01 Apr - 13:19:34 10° WNW 13:28:03 34° SW 13:36:51 10° SSE daylight
01 Apr - 22:02:04 10° S 22:09:07 22° SE 22:15:56 10° E visible
02 Apr - 00:04:16 10° SW 00:13:56 77° NW 00:23:14 10° NE visible
02 Apr - 02:14:51 10° WNW 02:18:49 13° NW 02:22:46 10° NNW night (unlit)
02 Apr - 10:49:11 10° NNW 10:58:13 47° NE 11:07:35 10° ESE daylight
02 Apr - 12:54:06 10° WNW 13:02:51 38° SW 13:11:56 10° SSE daylight
02 Apr - 21:37:23 10° S 21:43:51 19° SE 21:50:08 10° E visible
02 Apr - 23:39:02 10° SW 23:48:48 85° NW 23:58:09 10° NE visible
03 Apr - 01:48:31 10° W 01:53:35 16° NW 01:58:36 10° NNW night (unlit)
03 Apr - 10:24:15 10° NNW 10:33:03 42° NE 10:42:09 10° ESE daylight
03 Apr - 12:28:41 10° WNW 12:37:39 43° SW 12:46:58 10° SSE daylight
03 Apr - 21:12:49 10° S 21:18:35 17° SE 21:24:14 10° E visible
03 Apr - 23:13:51 10° SW 23:23:39 86° SE 23:33:03 10° NE visible
